Time,TemperatureF,DewpointF,PressureIn,WindDirection,WindDirectionDegrees,WindSpeedMPH,WindSpeedGustMPH,Humidity,HourlyPrecipIn,Conditions,Clouds,dailyrainin,SoftwareType,DateUTC
2013-08-23 06:13:00,69.0,66.0,29.92,SSW,213,0.0,0.0,91,-99.99,,,-99.99,,2013-08-23 10:13:00,
2013-08-23 06:23:00,68.0,65.0,29.92,SSW,213,0.0,0.0,91,-99.99,,,-99.99,,2013-08-23 10:23:00,
2013-08-23 06:42:00,68.0,65.0,29.93,SSW,213,0.0,0.0,91,-99.99,,,-99.99,,2013-08-23 10:42:00,
2013-08-23 06:53:00,67.0,65.0,29.93,SSW,213,0.0,0.0,92,-99.99,,,-99.99,,2013-08-23 10:53:00,
2013-08-23 07:11:00,67.0,65.0,29.94,SSW,213,0.0,0.0,93,0.00,,,-99.99,,2013-08-23 11:11:00,
2013-08-23 07:22:00,68.0,66.0,29.95,SSW,213,0.0,0.0,93,0.00,,,-99.99,,2013-08-23 11:22:00,
2013-08-23 07:42:00,69.0,67.0,29.95,SSW,213,0.0,0.0,93,0.00,,,-99.99,,2013-08-23 11:42:00,
2013-08-23 07:53:00,69.0,67.0,29.96,SSW,213,0.0,0.0,93,0.00,,,-99.99,,2013-08-23 11:53:00,
2013-08-23 08:11:00,70.0,68.0,29.97,SSW,213,0.0,0.0,92,0.00,,,-99.99,,2013-08-23 12:11:00,
2013-08-23 08:22:00,70.0,68.0,29.97,SSW,213,0.0,0.0,92,0.00,,,-99.99,,2013-08-23 12:22:00,
2013-08-23 08:32:00,70.0,68.0,29.97,SSW,213,0.0,0.0,92,0.00,,,-99.99,,2013-08-23 12:32:00,
2013-08-23 08:42:00,70.0,68.0,29.97,SSW,213,0.0,0.0,92,0.00,,,-99.99,,2013-08-23 12:42:00,
2013-08-23 09:42:00,75.0,65.0,29.98,NE,49,0.0,5.0,70,0.00,,,-99.99,,2013-08-23 13:42:00,
2013-08-23 09:53:00,75.0,64.0,29.98,NNE,18,0.0,3.0,69,0.00,,,-99.99,,2013-08-23 13:53:00,
2013-08-23 10:12:00,76.0,63.0,29.98,NNW,330,1.0,5.0,64,0.00,,,-99.99,,2013-08-23 14:12:00,
2013-08-23 10:22:00,76.0,62.0,29.98,NNW,345,0.0,2.0,63,0.00,,,-99.99,,2013-08-23 14:22:00,
2013-08-23 10:52:00,77.0,61.0,29.98,North,355,0.0,4.0,58,0.00,,,-99.99,,2013-08-23 14:52:00,
2013-08-23 11:11:00,78.0,62.0,29.98,NE,34,0.0,2.0,57,0.00,,,-99.99,,2013-08-23 15:11:00,
2013-08-23 11:22:00,79.0,60.0,29.98,North,5,0.0,4.0,53,0.00,,,-99.99,,2013-08-23 15:22:00,
2013-08-23 11:44:00,79.0,59.0,29.98,East,91,1.0,6.0,50,0.00,,,-99.99,,2013-08-23 15:44:00,
2013-08-23 11:54:00,80.0,59.0,29.98,NNW,339,0.0,3.0,48,0.00,,,-99.99,,2013-08-23 15:54:00,
2013-08-23 12:13:00,80.0,57.0,29.98,ENE,72,0.0,5.0,46,0.00,,,-99.99,,2013-08-23 16:13:00,
2013-08-23 12:24:00,82.0,60.0,29.98,NNW,336,0.0,5.0,47,0.00,,,-99.99,,2013-08-23 16:24:00,
2013-08-23 12:42:00,82.0,59.0,29.97,North,350,2.0,8.0,46,0.00,,,-99.99,,2013-08-23 16:42:00,
2013-08-23 12:53:00,81.0,56.0,29.98,East,83,1.0,9.0,42,0.00,,,-99.99,,2013-08-23 16:53:00,
2013-08-23 13:13:00,82.0,55.0,29.98,NNW,334,1.0,7.0,40,0.00,,,-99.99,,2013-08-23 17:13:00,
2013-08-23 13:24:00,81.0,54.0,29.98,North,360,3.0,9.0,39,0.00,,,-99.99,,2013-08-23 17:24:00,
2013-08-23 13:43:00,82.0,56.0,29.99,NNE,20,1.0,6.0,41,0.00,,,-99.99,,2013-08-23 17:43:00,
2013-08-23 13:54:00,82.0,55.0,29.99,North,9,1.0,6.0,39,0.00,,,-99.99,,2013-08-23 17:54:00,
2013-08-23 14:12:00,82.0,57.0,29.99,ENE,61,0.0,6.0,42,0.00,,,-99.99,,2013-08-23 18:12:00,
2013-08-23 14:22:00,82.0,59.0,29.99,NE,48,1.0,4.0,45,0.00,,,-99.99,,2013-08-23 18:22:00,
2013-08-23 14:52:00,81.0,59.0,29.99,North,360,1.0,3.0,47,0.00,,,-99.99,,2013-08-23 18:52:00,
2013-08-23 15:12:00,81.0,59.0,29.99,NNW,336,1.0,5.0,47,0.00,,,-99.99,,2013-08-23 19:12:00,
2013-08-23 15:22:00,81.0,61.0,29.98,WNW,301,0.0,3.0,51,0.00,,,-99.99,,2013-08-23 19:22:00,
2013-08-23 15:32:00,81.0,61.0,29.98,WNW,301,0.0,3.0,51,0.00,,,-99.99,,2013-08-23 19:32:00,
2013-08-23 15:42:00,81.0,61.0,29.98,WNW,301,0.0,3.0,51,0.00,,,-99.99,,2013-08-23 19:42:00,
2013-08-23 15:52:00,81.0,61.0,29.98,WNW,301,0.0,3.0,51,0.00,,,-99.99,,2013-08-23 19:52:00,
2013-08-23 16:02:00,81.0,61.0,29.98,WNW,301,0.0,3.0,51,0.00,,,-99.99,,2013-08-23 20:02:00,
2013-08-23 17:54:00,79.0,59.0,29.98,NNW,348,0.0,2.0,50,0.00,,,0.00,,2013-08-23 21:54:00,
2013-08-23 18:13:00,79.0,59.0,29.99,North,350,0.0,1.0,51,0.00,,,0.00,,2013-08-23 22:13:00,
2013-08-23 18:24:00,79.0,59.0,29.99,NNE,29,1.0,4.0,50,0.00,,,0.00,,2013-08-23 22:24:00,
2013-08-23 18:43:00,79.0,59.0,29.99,North,5,0.0,5.0,50,0.00,,,0.00,,2013-08-23 22:43:00,
2013-08-23 18:53:00,79.0,59.0,30.00,NNE,23,0.0,4.0,50,0.00,,,0.00,,2013-08-23 22:53:00,
2013-08-23 19:12:00,78.0,58.0,30.01,North,360,0.0,3.0,51,0.00,,,0.00,,2013-08-23 23:12:00,
2013-08-23 19:22:00,78.0,59.0,30.01,North,350,0.0,4.0,52,0.00,,,0.00,,2013-08-23 23:22:00,
2013-08-23 19:33:00,78.0,59.0,30.01,North,350,0.0,4.0,52,0.00,,,0.00,,2013-08-23 23:33:00,
2013-08-23 19:43:00,78.0,59.0,30.01,North,350,0.0,4.0,52,0.00,,,0.00,,2013-08-23 23:43:00,